| time (UTC) | temp F | wind direction | speed MPH | gust MPH | rain 1hr in | rain 24hr in | rain mn in | humidity % | barometer mb |
| 20260510120054 | 48 | 204 | 0.0 | 2.0 | 0.00 | 0.19 | 0.09 | 90 | 1009.7 |
| 20260510115553 | 48 | 194 | 0.0 | 3.0 | 0.00 | 0.20 | 0.09 | 90 | 1009.8 |
| 20260510115052 | 48 | 194 | 0.0 | 3.0 | 0.00 | 0.20 | 0.09 | 90 | 1009.6 |
| 20260510114606 | 48 | 200 | 0.0 | 0.0 | 0.00 | 0.20 | 0.09 | 90 | 1009.5 |
| 20260510114052 | 48 | 193 | 0.0 | 3.0 | 0.00 | 0.20 | 0.09 | 90 | 1009.4 |
| 20260510113551 | 48 | 193 | 0.0 | 3.0 | 0.00 | 0.20 | 0.09 | 90 | 1009.4 |
| 20260510113057 | 48 | 204 | 1.0 | 3.0 | 0.00 | 0.20 | 0.09 | 90 | 1009.3 |
| 20260510112551 | 48 | 220 | 0.0 | 3.0 | 0.00 | 0.20 | 0.09 | 90 | 1009.3 |
| 20260510112053 | 48 | 221 | 0.0 | 3.0 | 0.00 | 0.20 | 0.09 | 90 | 1009.2 |
| 20260510111551 | 48 | 221 | 1.0 | 4.0 | 0.00 | 0.20 | 0.09 | 90 | 1009.3 |
| 20260510111049 | 48 | 223 | 1.0 | 4.0 | 0.00 | 0.20 | 0.09 | 90 | 1009.2 |
| 20260510110548 | 48 | 194 | 2.0 | 6.0 | 0.00 | 0.20 | 0.09 | 90 | 1009.1 |
| 20260510110054 | 48 | 189 | 3.0 | 6.0 | 0.00 | 0.20 | 0.09 | 90 | 1008.8 |
| 20260510105547 | 48 | 184 | 0.0 | 5.0 | 0.00 | 0.20 | 0.09 | 90 | 1008.5 |
| 20260510105047 | 48 | 229 | 1.0 | 5.0 | 0.00 | 0.20 | 0.09 | 90 | 1008.7 |
| 20260510104549 | 48 | 205 | 1.0 | 5.0 | 0.00 | 0.20 | 0.09 | 90 | 1008.7 |
| 20260510104047 | 48 | 185 | 1.0 | 5.0 | 0.00 | 0.20 | 0.09 | 90 | 1008.5 |
| 20260510103547 | 48 | 186 | 2.0 | 5.0 | 0.00 | 0.20 | 0.09 | 90 | 1008.4 |
| 20260510103052 | 48 | 227 | 0.0 | 3.0 | 0.00 | 0.20 | 0.09 | 90 | 1008.5 |
| 20260510102547 | 48 | 227 | 0.0 | 4.0 | 0.00 | 0.20 | 0.09 | 90 | 1008.4 |
| 20260510102047 | 48 | 210 | 1.0 | 5.0 | 0.00 | 0.20 | 0.09 | 90 | 1008.3 |
| 20260510101559 | 48 | 210 | 1.0 | 7.0 | 0.00 | 0.20 | 0.09 | 90 | 1008.4 |
| 20260510101045 | 48 | 207 | 1.0 | 7.0 | 0.00 | 0.20 | 0.09 | 90 | 1008.4 |
| 20260510100545 | 48 | 196 | 3.0 | 10.0 | 0.01 | 0.20 | 0.09 | 90 | 1008.2 |
| 20260510100051 | 48 | 195 | 5.0 | 10.0 | 0.01 | 0.20 | 0.09 | 90 | 1008.1 |
| 20260510095544 | 48 | 157 | 3.0 | 7.0 | 0.01 | 0.20 | 0.09 | 91 | 1008.1 |
| 20260510095043 | 48 | 194 | 2.0 | 5.0 | 0.01 | 0.20 | 0.09 | 91 | 1008.1 |
| 20260510094550 | 47 | 210 | 2.0 | 6.0 | 0.01 | 0.20 | 0.09 | 91 | 1008.1 |
| 20260510094047 | 47 | 205 | 3.0 | 6.0 | 0.01 | 0.20 | 0.09 | 91 | 1008.1 |
| 20260510093543 | 47 | 198 | 0.0 | 2.0 | 0.01 | 0.20 | 0.09 | 91 | 1008.0 |
| 20260510093043 | 47 | 198 | 0.0 | 4.0 | 0.01 | 0.20 | 0.09 | 91 | 1007.9 |
| 20260510092543 | 47 | 195 | 1.0 | 4.0 | 0.01 | 0.20 | 0.09 | 91 | 1007.8 |
| 20260510092044 | 47 | 205 | 1.0 | 3.0 | 0.01 | 0.20 | 0.09 | 91 | 1007.7 |
| 20260510091542 | 47 | 199 | 1.0 | 4.0 | 0.01 | 0.20 | 0.09 | 91 | 1007.6 |
| 20260510091042 | 47 | 198 | 1.0 | 5.0 | 0.01 | 0.20 | 0.09 | 91 | 1007.7 |
| 20260510090541 | 47 | 188 | 2.0 | 5.0 | 0.00 | 0.19 | 0.08 | 91 | 1007.5 |
| 20260510090041 | 47 | 196 | 2.0 | 5.0 | 0.00 | 0.19 | 0.08 | 90 | 1007.5 |
| 20260510085539 | 47 | 204 | 1.0 | 4.0 | 0.00 | 0.19 | 0.08 | 90 | 1007.5 |
| 20260510085040 | 47 | 234 | 2.0 | 4.0 | 0.00 | 0.19 | 0.08 | 90 | 1007.4 |
| 20260510084539 | 47 | 223 | 0.0 | 3.0 | 0.00 | 0.19 | 0.08 | 90 | 1007.4 |
| 20260510084039 | 47 | 223 | 1.0 | 4.0 | 0.00 | 0.19 | 0.08 | 90 | 1007.5 |
| 20260510083538 | 47 | 223 | 1.0 | 4.0 | 0.00 | 0.19 | 0.08 | 90 | 1007.3 |
| 20260510083039 | 47 | 244 | 1.0 | 4.0 | 0.00 | 0.19 | 0.08 | 90 | 1007.5 |
| 20260510082537 | 47 | 198 | 2.0 | 5.0 | 0.00 | 0.19 | 0.08 | 90 | 1007.6 |
| 20260510082037 | 47 | 207 | 3.0 | 6.0 | 0.00 | 0.19 | 0.08 | 90 | 1007.5 |
| 20260510081541 | 47 | 199 | 3.0 | 6.0 | 0.00 | 0.19 | 0.08 | 90 | 1007.4 |
| 20260510081036 | 47 | 208 | 3.0 | 4.0 | 0.00 | 0.19 | 0.08 | 89 | 1007.5 |
| 20260510080535 | 47 | 217 | 1.0 | 3.0 | 0.00 | 0.19 | 0.08 | 89 | 1007.5 |
| 20260510080050 | 47 | 218 | 0.0 | 5.0 | 0.00 | 0.19 | 0.08 | 89 | 1007.5 |
| 20260510075533 | 48 | 215 | 0.0 | 5.0 | 0.00 | 0.19 | 0.08 | 89 | 1007.5 |
| 20260510075033 | 48 | 221 | 2.0 | 6.0 | 0.00 | 0.19 | 0.08 | 89 | 1007.3 |
| 20260510074532 | 48 | 273 | 2.0 | 7.0 | 0.00 | 0.19 | 0.08 | 89 | 1007.4 |
| 20260510074032 | 48 | 202 | 3.0 | 7.0 | 0.00 | 0.19 | 0.08 | 89 | 1007.3 |
| 20260510073531 | 48 | 217 | 1.0 | 6.0 | 0.00 | 0.19 | 0.08 | 89 | 1007.2 |
| 20260510073040 | 48 | 190 | 3.0 | 9.0 | 0.00 | 0.19 | 0.08 | 89 | 1007.2 |
| 20260510072530 | 48 | 192 | 5.0 | 9.0 | 0.00 | 0.19 | 0.08 | 89 | 1007.2 |
| 20260510072030 | 48 | 201 | 3.0 | 8.0 | 0.00 | 0.19 | 0.08 | 88 | 1007.3 |
| 20260510071529 | 49 | 198 | 3.0 | 7.0 | 0.00 | 0.19 | 0.08 | 88 | 1007.4 |
| 20260510071029 | 49 | 202 | 2.0 | 6.0 | 0.00 | 0.19 | 0.08 | 88 | 1007.3 |
| 20260510070528 | 49 | 187 | 2.0 | 6.0 | 0.00 | 0.19 | 0.08 | 88 | 1007.2 |
| 20260510070040 | 49 | 210 | 1.0 | 4.0 | 0.00 | 0.19 | 0.08 | 88 | 1007.3 |
| 20260510065528 | 49 | 206 | 1.0 | 4.0 | 0.00 | 0.19 | 0.08 | 88 | 1007.4 |
| 20260510065029 | 49 | 219 | 2.0 | 7.0 | 0.00 | 0.19 | 0.08 | 88 | 1007.4 |
| 20260510064527 | 49 | 234 | 3.0 | 10.0 | 0.00 | 0.19 | 0.08 | 88 | 1007.5 |
| 20260510064026 | 49 | 204 | 4.0 | 10.0 | 0.00 | 0.19 | 0.08 | 88 | 1007.5 |
| 20260510063526 | 49 | 222 | 3.0 | 10.0 | 0.00 | 0.19 | 0.08 | 88 | 1007.5 |
| 20260510063033 | 49 | 155 | 3.0 | 8.0 | 0.01 | 0.19 | 0.08 | 88 | 1007.3 |
| 20260510062525 | 49 | 190 | 2.0 | 9.0 | 0.02 | 0.19 | 0.08 | 88 | 1007.5 |
| 20260510062024 | 49 | 179 | 3.0 | 8.0 | 0.02 | 0.19 | 0.08 | 88 | 1007.5 |
| 20260510061523 | 49 | 194 | 2.0 | 6.0 | 0.03 | 0.19 | 0.08 | 87 | 1007.5 |
| 20260510061026 | 49 | 208 | 1.0 | 8.0 | 0.04 | 0.19 | 0.08 | 87 | 1007.8 |
| 20260510060524 | 49 | 206 | 4.0 | 8.0 | 0.05 | 0.19 | 0.08 | 87 | 1007.8 |
| 20260510060035 | 49 | 234 | 1.0 | 9.0 | 0.05 | 0.19 | 0.08 | 87 | 1007.7 |
| 20260510055530 | 49 | 207 | 5.0 | 14.0 | 0.05 | 0.19 | 0.08 | 87 | 1007.7 |
| 20260510055022 | 49 | 178 | 6.0 | 14.0 | 0.05 | 0.19 | 0.08 | 87 | 1007.6 |
| 20260510054523 | 49 | 203 | 4.0 | 11.0 | 0.05 | 0.19 | 0.08 | 88 | 1007.7 |
| 20260510054021 | 49 | 142 | 7.0 | 11.0 | 0.06 | 0.19 | 0.08 | 88 | 1007.6 |
| 20260510053520 | 49 | 136 | 5.0 | 9.0 | 0.07 | 0.19 | 0.08 | 88 | 1007.8 |
| 20260510053019 | 49 | 193 | 4.0 | 9.0 | 0.07 | 0.18 | 0.07 | 88 | 1008.3 |
| 20260510052519 | 49 | 192 | 3.0 | 9.0 | 0.06 | 0.17 | 0.06 | 88 | 1008.4 |
| 20260510052018 | 49 | 182 | 1.0 | 4.0 | 0.05 | 0.16 | 0.05 | 89 | 1008.5 |
| 20260510051517 | 49 | 206 | 1.0 | 4.0 | 0.05 | 0.16 | 0.05 | 88 | 1008.8 |
| 20260510051016 | 50 | 251 | 0.0 | 2.0 | 0.04 | 0.15 | 0.04 | 88 | 1008.9 |
| 20260510050516 | 50 | 251 | 0.0 | 3.0 | 0.03 | 0.14 | 0.03 | 88 | 1008.8 |
| 20260510050018 | 50 | 253 | 0.0 | 2.0 | 0.03 | 0.14 | 0.03 | 88 | 1008.7 |
| 20260510045518 | 50 | 254 | 0.0 | 3.0 | 0.03 | 0.14 | 0.03 | 88 | 1008.6 |
| 20260510045013 | 50 | 255 | 1.0 | 3.0 | 0.03 | 0.14 | 0.03 | 87 | 1008.6 |
| 20260510044513 | 50 | 273 | 0.0 | 5.0 | 0.03 | 0.14 | 0.03 | 87 | 1008.6 |
| 20260510044018 | 50 | 277 | 1.0 | 12.0 | 0.02 | 0.13 | 0.02 | 87 | 1008.5 |
| 20260510043516 | 50 | 286 | 2.0 | 12.0 | 0.01 | 0.12 | 0.01 | 86 | 1008.5 |
| 20260510043010 | 50 | 284 | 6.0 | 11.0 | 0.00 | 0.11 | 0.00 | 86 | 1008.5 |
| 20260510042512 | 50 | 313 | 2.0 | 5.0 | 0.00 | 0.11 | 0.00 | 86 | 1008.4 |
| 20260510042008 | 50 | 274 | 2.0 | 6.0 | 0.00 | 0.11 | 0.00 | 86 | 1008.1 |
| 20260510041508 | 50 | 214 | 1.0 | 6.0 | 0.00 | 0.11 | 0.00 | 86 | 1008.0 |
| 20260510041007 | 50 | 241 | 1.0 | 5.0 | 0.00 | 0.11 | 0.00 | 86 | 1007.9 |
| 20260510040505 | 50 | 264 | 1.0 | 6.0 | 0.00 | 0.11 | 0.00 | 86 | 1007.8 |
| 20260510040010 | 50 | 250 | 1.0 | 8.0 | 0.00 | 0.11 | 0.00 | 86 | 1007.7 |
| 20260510035502 | 50 | 203 | 3.0 | 11.0 | 0.00 | 0.11 | 0.11 | 86 | 1007.7 |
| 20260510035003 | 50 | 260 | 4.0 | 11.0 | 0.00 | 0.11 | 0.11 | 86 | 1007.4 |
| 20260510034502 | 50 | 193 | 5.0 | 12.0 | 0.00 | 0.11 | 0.11 | 85 | 1007.4 |
| 20260510034003 | 50 | 183 | 4.0 | 12.0 | 0.00 | 0.11 | 0.11 | 85 | 1007.4 |
| 20260510033501 | 51 | 184 | 3.0 | 10.0 | 0.00 | 0.11 | 0.11 | 85 | 1007.3 |
| 20260510033002 | 51 | 196 | 3.0 | 9.0 | 0.00 | 0.11 | 0.11 | 85 | 1007.3 |
| 20260510032502 | 51 | 173 | 4.0 | 9.0 | 0.00 | 0.11 | 0.11 | 84 | 1007.2 |
| 20260510032003 | 51 | 191 | 3.0 | 10.0 | 0.00 | 0.11 | 0.11 | 84 | 1007.4 |
| 20260510031501 | 51 | 170 | 3.0 | 9.0 | 0.00 | 0.11 | 0.11 | 84 | 1007.3 |
| 20260510031001 | 51 | 171 | 2.0 | 7.0 | 0.00 | 0.11 | 0.11 | 84 | 1007.5 |
| 20260510030500 | 51 | 206 | 0.0 | 12.0 | 0.00 | 0.11 | 0.11 | 84 | 1007.5 |
| 20260510025600 | 51 | 212 | 2.0 | 7.0 | 0.00 | 0.11 | 0.11 | 84 | 1007.6 |
| 20260510025102 | 51 | 199 | 4.0 | 7.0 | 0.00 | 0.11 | 0.11 | 84 | 1007.5 |
| 20260510024602 | 51 | 155 | 3.0 | 10.0 | 0.00 | 0.11 | 0.11 | 84 | 1007.2 |
| 20260510024100 | 51 | 221 | 6.0 | 10.0 | 0.00 | 0.11 | 0.11 | 84 | 1007.1 |
| 20260510023559 | 51 | 156 | 4.0 | 9.0 | 0.00 | 0.11 | 0.11 | 84 | 1007.1 |
| 20260510023058 | 51 | 166 | 5.0 | 12.0 | 0.00 | 0.11 | 0.11 | 84 | 1007.1 |
| 20260510022559 | 51 | 167 | 7.0 | 12.0 | 0.00 | 0.11 | 0.11 | 84 | 1007.1 |
| 20260510022100 | 51 | 142 | 6.0 | 12.0 | 0.00 | 0.11 | 0.11 | 85 | 1007.0 |
| 20260510021646 | 51 | 145 | 3.0 | 8.0 | 0.00 | 0.11 | 0.11 | 85 | 1007.1 |
| 20260510021058 | 51 | 184 | 4.0 | 9.0 | 0.00 | 0.11 | 0.11 | 85 | 1007.1 |
| 20260510020557 | 51 | 166 | 4.0 | 8.0 | 0.00 | 0.11 | 0.11 | 85 | 1007.0 |
| 20260510020100 | 51 | 142 | 4.0 | 9.0 | 0.00 | 0.11 | 0.11 | 85 | 1007.1 |
| 20260510015557 | 51 | 150 | 5.0 | 9.0 | 0.00 | 0.11 | 0.11 | 85 | 1007.2 |
| 20260510015058 | 50 | 148 | 3.0 | 7.0 | 0.00 | 0.11 | 0.11 | 86 | 1007.5 |
| 20260510014600 | 50 | 150 | 2.0 | 7.0 | 0.00 | 0.11 | 0.11 | 86 | 1007.4 |
| 20260510014056 | 50 | 142 | 4.0 | 7.0 | 0.00 | 0.11 | 0.11 | 86 | 1007.3 |
| 20260510013556 | 50 | 157 | 2.0 | 9.0 | 0.00 | 0.11 | 0.11 | 86 | 1007.3 |
| 20260510013102 | 50 | 142 | 4.0 | 9.0 | 0.00 | 0.11 | 0.11 | 86 | 1007.1 |
| 20260510012556 | 50 | 154 | 3.0 | 6.0 | 0.00 | 0.11 | 0.11 | 86 | 1007.0 |
| 20260510012055 | 50 | 133 | 3.0 | 5.0 | 0.00 | 0.11 | 0.11 | 85 | 1006.9 |
| 20260510011555 | 50 | 150 | 3.0 | 7.0 | 0.00 | 0.11 | 0.11 | 85 | 1006.9 |
| 20260510011054 | 51 | 140 | 3.0 | 7.0 | 0.00 | 0.11 | 0.11 | 85 | 1007.0 |
| 20260510010554 | 51 | 147 | 3.0 | 7.0 | 0.00 | 0.11 | 0.11 | 85 | 1007.0 |
| 20260510010059 | 51 | 138 | 3.0 | 7.0 | 0.00 | 0.11 | 0.11 | 85 | 1007.1 |
| 20260510005554 | 51 | 169 | 2.0 | 8.0 | 0.00 | 0.11 | 0.11 | 85 | 1007.1 |
| 20260510005054 | 50 | 169 | 4.0 | 12.0 | 0.00 | 0.11 | 0.11 | 85 | 1006.9 |
| 20260510004554 | 50 | 132 | 4.0 | 12.0 | 0.00 | 0.11 | 0.11 | 85 | 1006.9 |
| 20260510004054 | 50 | 130 | 4.0 | 9.0 | 0.00 | 0.11 | 0.11 | 85 | 1006.7 |
| 20260510003554 | 50 | 126 | 3.0 | 9.0 | 0.00 | 0.11 | 0.11 | 85 | 1006.7 |
| 20260510003054 | 50 | 146 | 2.0 | 7.0 | 0.00 | 0.11 | 0.11 | 85 | 1006.7 |
| 20260510002557 | 50 | 146 | 3.0 | 7.0 | 0.00 | 0.11 | 0.11 | 85 | 1006.6 |
| 20260510002053 | 51 | 136 | 3.0 | 8.0 | 0.00 | 0.11 | 0.11 | 85 | 1006.6 |
| 20260510001553 | 51 | 156 | 4.0 | 8.0 | 0.00 | 0.11 | 0.11 | 85 | 1006.7 |
| 20260510001053 | 51 | 160 | 3.0 | 12.0 | 0.00 | 0.11 | 0.11 | 85 | 1006.5 |
| 20260510000556 | 51 | 188 | 5.0 | 12.0 | 0.00 | 0.11 | 0.11 | 85 | 1006.3 |
| 20260510000053 | 51 | 155 | 6.0 | 10.0 | 0.00 | 0.11 | 0.11 | 85 | 1006.4 |
| 20260509235552 | 51 | 134 | 4.0 | 8.0 | 0.00 | 0.11 | 0.11 | 85 | 1006.6 |
| 20260509235053 | 51 | 142 | 4.0 | 7.0 | 0.00 | 0.11 | 0.11 | 85 | 1006.7 |
| 20260509234552 | 51 | 193 | 3.0 | 7.0 | 0.00 | 0.11 | 0.11 | 85 | 1006.8 |
| 20260509234051 | 51 | 183 | 3.0 | 10.0 | 0.00 | 0.11 | 0.11 | 85 | 1006.7 |
| 20260509233551 | 51 | 178 | 5.0 | 10.0 | 0.00 | 0.11 | 0.11 | 84 | 1006.6 |
| 20260509233051 | 51 | 169 | 3.0 | 6.0 | 0.00 | 0.11 | 0.11 | 85 | 1006.6 |
| 20260509232551 | 51 | 158 | 2.0 | 8.0 | 0.00 | 0.11 | 0.11 | 85 | 1006.6 |
| 20260509232051 | 51 | 202 | 4.0 | 10.0 | 0.00 | 0.11 | 0.11 | 84 | 1006.7 |
| 20260509231553 | 51 | 180 | 5.0 | 10.0 | 0.00 | 0.11 | 0.11 | 84 | 1006.6 |
| 20260509231050 | 51 | 202 | 4.0 | 8.0 | 0.00 | 0.11 | 0.11 | 84 | 1006.7 |
| 20260509230552 | 51 | 206 | 3.0 | 8.0 | 0.00 | 0.11 | 0.11 | 84 | 1006.6 |
| 20260509230053 | 51 | 207 | 2.0 | 10.0 | 0.00 | 0.11 | 0.11 | 84 | 1006.6 |
| 20260509225550 | 51 | 179 | 4.0 | 11.0 | 0.00 | 0.11 | 0.11 | 84 | 1006.5 |
| 20260509225049 | 51 | 205 | 2.0 | 11.0 | 0.00 | 0.11 | 0.11 | 84 | 1006.5 |
| 20260509224550 | 51 | 188 | 6.0 | 10.0 | 0.00 | 0.11 | 0.11 | 84 | 1006.4 |
| 20260509224050 | 51 | 174 | 2.0 | 10.0 | 0.00 | 0.11 | 0.11 | 84 | 1006.4 |
| 20260509223550 | 51 | 190 | 4.0 | 10.0 | 0.00 | 0.11 | 0.11 | 84 | 1006.3 |
| 20260509223053 | 51 | 225 | 5.0 | 11.0 | 0.00 | 0.11 | 0.11 | 84 | 1006.3 |
| 20260509222550 | 51 | 211 | 5.0 | 11.0 | 0.00 | 0.11 | 0.11 | 84 | 1006.3 |
| 20260509222049 | 51 | 209 | 2.0 | 14.0 | 0.00 | 0.11 | 0.11 | 84 | 1006.5 |
| 20260509221549 | 51 | 182 | 5.0 | 14.0 | 0.00 | 0.11 | 0.11 | 84 | 1006.4 |
| 20260509221048 | 51 | 189 | 4.0 | 16.0 | 0.00 | 0.11 | 0.11 | 84 | 1006.4 |
| 20260509220547 | 51 | 186 | 7.0 | 16.0 | 0.00 | 0.11 | 0.11 | 84 | 1006.4 |
| 20260509220050 | 51 | 194 | 4.0 | 11.0 | 0.00 | 0.11 | 0.11 | 84 | 1006.4 |
| 20260509215546 | 51 | 232 | 4.0 | 10.0 | 0.00 | 0.11 | 0.11 | 84 | 1006.5 |
| 20260509215047 | 51 | 182 | 7.0 | 14.0 | 0.00 | 0.11 | 0.11 | 84 | 1006.4 |
| 20260509214547 | 51 | 183 | 5.0 | 11.0 | 0.00 | 0.11 | 0.11 | 84 | 1006.5 |
| 20260509214046 | 51 | 188 | 4.0 | 12.0 | 0.00 | 0.11 | 0.11 | 84 | 1006.5 |
| 20260509213546 | 51 | 180 | 3.0 | 12.0 | 0.00 | 0.11 | 0.11 | 84 | 1006.5 |
| 20260509213102 | 51 | 222 | 6.0 | 10.0 | 0.00 | 0.11 | 0.11 | 84 | 1006.4 |
| 20260509212544 | 51 | 191 | 4.0 | 10.0 | 0.00 | 0.11 | 0.11 | 84 | 1006.5 |
| 20260509212042 | 51 | 150 | 4.0 | 10.0 | 0.00 | 0.11 | 0.11 | 85 | 1006.6 |
| 20260509211542 | 51 | 213 | 3.0 | 10.0 | 0.00 | 0.11 | 0.11 | 85 | 1006.6 |
| 20260509211042 | 51 | 194 | 3.0 | 13.0 | 0.00 | 0.11 | 0.11 | 85 | 1006.6 |
| 20260509210543 | 51 | 209 | 6.0 | 13.0 | 0.00 | 0.11 | 0.11 | 85 | 1006.7 |
| 20260509210046 | 51 | 214 | 4.0 | 11.0 | 0.00 | 0.11 | 0.11 | 85 | 1006.8 |
| 20260509205544 | 51 | 142 | 5.0 | 11.0 | 0.00 | 0.11 | 0.11 | 85 | 1006.8 |
| 20260509205040 | 51 | 205 | 4.0 | 8.0 | 0.00 | 0.11 | 0.11 | 86 | 1006.8 |
| 20260509204540 | 51 | 224 | 2.0 | 13.0 | 0.00 | 0.11 | 0.11 | 86 | 1007.0 |
| 20260509204038 | 51 | 175 | 6.0 | 13.0 | 0.00 | 0.11 | 0.11 | 86 | 1007.0 |
| 20260509203540 | 51 | 196 | 8.0 | 13.0 | 0.00 | 0.11 | 0.11 | 86 | 1007.0 |
| 20260509203037 | 51 | 193 | 2.0 | 13.0 | 0.00 | 0.11 | 0.11 | 87 | 1007.0 |
| 20260509202541 | 50 | 188 | 7.0 | 13.0 | 0.00 | 0.11 | 0.11 | 87 | 1007.0 |
| 20260509202036 | 51 | 222 | 6.0 | 13.0 | 0.00 | 0.11 | 0.11 | 88 | 1007.1 |
| 20260509201539 | 50 | 172 | 6.0 | 13.0 | 0.00 | 0.11 | 0.11 | 88 | 1007.1 |
| 20260509201034 | 50 | 194 | 5.0 | 12.0 | 0.00 | 0.11 | 0.11 | 88 | 1007.1 |
| 20260509200539 | 50 | 184 | 7.0 | 12.0 | 0.00 | 0.11 | 0.11 | 88 | 1007.1 |
| 20260509200034 | 50 | 193 | 7.0 | 15.0 | 0.00 | 0.11 | 0.11 | 88 | 1007.1 |
| 20260509195531 | 50 | 182 | 5.0 | 15.0 | 0.00 | 0.12 | 0.11 | 88 | 1007.1 |
| 20260509195029 | 50 | 161 | 4.0 | 17.0 | 0.00 | 0.12 | 0.11 | 88 | 1007.2 |
| 20260509194540 | 50 | 187 | 7.0 | 17.0 | 0.00 | 0.12 | 0.11 | 88 | 1007.4 |
| 20260509194026 | 50 | 184 | 6.0 | 17.0 | 0.00 | 0.12 | 0.11 | 88 | 1007.3 |
| 20260509193527 | 50 | 169 | 7.0 | 17.0 | 0.00 | 0.12 | 0.11 | 88 | 1007.5 |
| 20260509193025 | 50 | 200 | 7.0 | 15.0 | 0.00 | 0.12 | 0.11 | 88 | 1007.5 |
| 20260509192522 | 50 | 209 | 8.0 | 15.0 | 0.00 | 0.12 | 0.11 | 88 | 1007.5 |
| 20260509192020 | 50 | 235 | 4.0 | 12.0 | 0.00 | 0.12 | 0.11 | 88 | 1007.6 |
| 20260509191520 | 50 | 205 | 5.0 | 10.0 | 0.00 | 0.12 | 0.11 | 88 | 1007.7 |
| 20260509191023 | 50 | 147 | 5.0 | 10.0 | 0.00 | 0.12 | 0.11 | 87 | 1007.8 |
| 20260509190519 | 50 | 202 | 6.0 | 10.0 | 0.00 | 0.12 | 0.11 | 87 | 1007.7 |
| 20260509190019 | 50 | 187 | 6.0 | 10.0 | 0.00 | 0.12 | 0.11 | 86 | 1007.8 |
| 20260509185516 | 50 | 197 | 7.0 | 10.0 | 0.00 | 0.12 | 0.11 | 86 | 1007.8 |
| 20260509185015 | 50 | 192 | 6.0 | 10.0 | 0.00 | 0.12 | 0.11 | 86 | 1007.8 |
| 20260509184514 | 50 | 194 | 5.0 | 11.0 | 0.00 | 0.12 | 0.11 | 86 | 1007.8 |
| 20260509184013 | 50 | 191 | 6.0 | 11.0 | 0.00 | 0.12 | 0.11 | 85 | 1007.8 |
| 20260509183511 | 50 | 180 | 6.0 | 11.0 | 0.00 | 0.12 | 0.11 | 85 | 1007.9 |
| 20260509183013 | 50 | 150 | 3.0 | 10.0 | 0.00 | 0.12 | 0.11 | 85 | 1007.9 |
| 20260509182508 | 50 | 210 | 2.0 | 10.0 | 0.00 | 0.12 | 0.11 | 85 | 1007.8 |
| 20260509182006 | 50 | 196 | 3.0 | 10.0 | 0.00 | 0.12 | 0.11 | 85 | 1007.7 |
| 20260509181505 | 50 | 188 | 4.0 | 14.0 | 0.00 | 0.12 | 0.11 | 85 | 1007.8 |
| 20260509181005 | 50 | 210 | 5.0 | 14.0 | 0.00 | 0.12 | 0.11 | 86 | 1007.8 |
| 20260509180504 | 50 | 196 | 2.0 | 6.0 | 0.00 | 0.12 | 0.11 | 86 | 1007.8 |
| 20260509180003 | 50 | 207 | 2.0 | 11.0 | 0.00 | 0.12 | 0.11 | 86 | 1007.8 |
| 20260509175502 | 50 | 182 | 6.0 | 11.0 | 0.00 | 0.12 | 0.11 | 86 | 1007.8 |
| 20260509175101 | 50 | 213 | 5.0 | 11.0 | 0.00 | 0.12 | 0.11 | 87 | 1007.7 |
| 20260509174600 | 50 | 208 | 2.0 | 7.0 | 0.00 | 0.12 | 0.11 | 87 | 1007.8 |
| 20260509174058 | 49 | 218 | 2.0 | 11.0 | 0.00 | 0.12 | 0.11 | 87 | 1007.8 |
| 20260509173600 | 49 | 155 | 2.0 | 11.0 | 0.00 | 0.12 | 0.11 | 87 | 1007.7 |
| 20260509173107 | 49 | 208 | 3.0 | 9.0 | 0.00 | 0.12 | 0.11 | 88 | 1007.7 |
| 20260509172557 | 49 | 202 | 4.0 | 9.0 | 0.00 | 0.12 | 0.11 | 88 | 1007.7 |
| 20260509172055 | 49 | 203 | 3.0 | 5.0 | 0.00 | 0.12 | 0.11 | 88 | 1007.8 |
| 20260509171557 | 49 | 197 | 2.0 | 7.0 | 0.00 | 0.12 | 0.11 | 88 | 1007.8 |
| 20260509171053 | 49 | 190 | 4.0 | 7.0 | 0.00 | 0.12 | 0.11 | 88 | 1007.9 |
| 20260509170552 | 49 | 192 | 3.0 | 9.0 | 0.00 | 0.12 | 0.11 | 88 | 1007.9 |
| 20260509170050 | 49 | 186 | 4.0 | 9.0 | 0.00 | 0.12 | 0.11 | 88 | 1008.0 |
| 20260509165549 | 49 | 192 | 3.0 | 8.0 | 0.00 | 0.13 | 0.11 | 88 | 1008.0 |
| 20260509165048 | 48 | 158 | 3.0 | 7.0 | 0.00 | 0.13 | 0.11 | 88 | 1008.0 |
| 20260509164547 | 48 | 178 | 2.0 | 7.0 | 0.01 | 0.13 | 0.11 | 88 | 1008.0 |
| 20260509164047 | 48 | 187 | 3.0 | 8.0 | 0.01 | 0.13 | 0.11 | 88 | 1008.1 |
| 20260509163548 | 48 | 161 | 3.0 | 8.0 | 0.01 | 0.13 | 0.11 | 88 | 1008.2 |
| 20260509163046 | 48 | 189 | 2.0 | 9.0 | 0.01 | 0.13 | 0.11 | 89 | 1008.2 |
| 20260509162545 | 48 | 155 | 4.0 | 9.0 | 0.01 | 0.13 | 0.11 | 88 | 1008.4 |
| 20260509162046 | 48 | 147 | 3.0 | 9.0 | 0.01 | 0.13 | 0.11 | 89 | 1008.4 |
| 20260509161555 | 48 | 146 | 6.0 | 9.0 | 0.01 | 0.13 | 0.11 | 89 | 1008.4 |
| 20260509161043 | 48 | 170 | 4.0 | 8.0 | 0.01 | 0.13 | 0.11 | 89 | 1008.5 |
| 20260509160544 | 48 | 113 | 3.0 | 9.0 | 0.01 | 0.13 | 0.11 | 89 | 1008.6 |
| 20260509160042 | 49 | 194 | 2.0 | 9.0 | 0.01 | 0.13 | 0.11 | 90 | 1008.6 |
| 20260509155540 | 48 | 167 | 3.0 | 9.0 | 0.01 | 0.13 | 0.11 | 90 | 1008.7 |
| 20260509155040 | 48 | 136 | 4.0 | 7.0 | 0.01 | 0.13 | 0.11 | 90 | 1008.8 |
| 20260509154546 | 48 | 169 | 1.0 | 8.0 | 0.00 | 0.12 | 0.10 | 90 | 1008.8 |
| 20260509154038 | 48 | 191 | 3.0 | 8.0 | 0.01 | 0.12 | 0.10 | 91 | 1009.0 |
| 20260509153539 | 48 | 136 | 4.0 | 8.0 | 0.01 | 0.12 | 0.10 | 91 | 1008.8 |
| 20260509153052 | 48 | 130 | 4.0 | 7.0 | 0.01 | 0.12 | 0.10 | 91 | 1009.0 |
| 20260509152535 | 48 | 139 | 2.0 | 7.0 | 0.02 | 0.12 | 0.10 | 91 | 1009.0 |
| 20260509152035 | 47 | 128 | 4.0 | 8.0 | 0.02 | 0.12 | 0.10 | 91 | 1009.1 |
| 20260509151534 | 47 | 130 | 2.0 | 8.0 | 0.02 | 0.12 | 0.10 | 91 | 1009.0 |
| 20260509151033 | 47 | 126 | 3.0 | 8.0 | 0.03 | 0.12 | 0.10 | 91 | 1009.0 |
| 20260509150532 | 47 | 141 | 2.0 | 8.0 | 0.03 | 0.12 | 0.10 | 91 | 1009.1 |
| 20260509150032 | 47 | 133 | 3.0 | 8.0 | 0.04 | 0.12 | 0.10 | 91 | 1009.1 |
| 20260509145531 | 46 | 146 | 2.0 | 8.0 | 0.05 | 0.13 | 0.10 | 91 | 1009.1 |
| 20260509145030 | 46 | 166 | 2.0 | 7.0 | 0.05 | 0.13 | 0.10 | 91 | 1009.1 |
| 20260509144529 | 46 | 146 | 3.0 | 7.0 | 0.05 | 0.13 | 0.10 | 91 | 1009.1 |
| 20260509144028 | 46 | 156 | 2.0 | 8.0 | 0.04 | 0.12 | 0.09 | 91 | 1009.2 |
| 20260509143527 | 46 | 142 | 3.0 | 9.0 | 0.04 | 0.12 | 0.09 | 91 | 1009.2 |
| 20260509143028 | 46 | 130 | 5.0 | 9.0 | 0.04 | 0.12 | 0.09 | 91 | 1009.2 |
| 20260509142525 | 46 | 139 | 2.0 | 7.0 | 0.04 | 0.11 | 0.08 | 91 | 1009.3 |
| 20260509142024 | 45 | 147 | 3.0 | 7.0 | 0.04 | 0.11 | 0.08 | 90 | 1009.3 |
| 20260509141533 | 45 | 115 | 3.0 | 8.0 | 0.04 | 0.11 | 0.08 | 91 | 1009.3 |
| 20260509141024 | 45 | 135 | 2.0 | 6.0 | 0.04 | 0.10 | 0.07 | 90 | 1009.2 |
| 20260509140523 | 45 | 152 | 1.0 | 7.0 | 0.04 | 0.10 | 0.07 | 90 | 1009.2 |
| 20260509140022 | 45 | 139 | 4.0 | 7.0 | 0.03 | 0.09 | 0.06 | 90 | 1009.2 |
| 20260509135522 | 45 | 111 | 2.0 | 5.0 | 0.02 | 0.08 | 0.05 | 90 | 1009.2 |
| 20260509135021 | 45 | 143 | 2.0 | 7.0 | 0.03 | 0.08 | 0.05 | 90 | 1009.2 |
| 20260509134520 | 45 | 156 | 3.0 | 7.0 | 0.03 | 0.08 | 0.05 | 90 | 1009.2 |
| 20260509134023 | 45 | 155 | 2.0 | 6.0 | 0.03 | 0.08 | 0.05 | 90 | 1009.2 |
| 20260509133520 | 45 | 128 | 2.0 | 6.0 | 0.03 | 0.08 | 0.05 | 90 | 1009.4 |
| 20260509133022 | 45 | 124 | 1.0 | 5.0 | 0.04 | 0.08 | 0.05 | 90 | 1009.3 |
| 20260509132521 | 45 | 140 | 0.0 | 3.0 | 0.03 | 0.07 | 0.04 | 90 | 1009.3 |
| 20260509132018 | 44 | 148 | 1.0 | 3.0 | 0.03 | 0.07 | 0.04 | 90 | 1009.3 |
| 20260509131521 | 44 | 94 | 1.0 | 3.0 | 0.03 | 0.07 | 0.04 | 90 | 1009.3 |
| 20260509131016 | 44 | 94 | 1.0 | 3.0 | 0.02 | 0.06 | 0.03 | 89 | 1009.3 |
| 20260509130516 | 44 | 96 | 1.0 | 3.0 | 0.02 | 0.06 | 0.03 | 89 | 1009.4 |
| 20260509130015 | 44 | 88 | 1.0 | 4.0 | 0.02 | 0.06 | 0.03 | 89 | 1009.4 |
| 20260509125516 | 44 | 88 | 2.0 | 4.0 | 0.02 | 0.06 | 0.03 | 88 | 1009.6 |
| 20260509125016 | 44 | 98 | 1.0 | 4.0 | 0.02 | 0.05 | 0.02 | 89 | 1009.6 |
| 20260509124513 | 44 | 144 | 2.0 | 4.0 | 0.02 | 0.05 | 0.02 | 88 | 1009.6 |
| 20260509124014 | 44 | 109 | 1.0 | 5.0 | 0.02 | 0.05 | 0.02 | 88 | 1009.7 |
| 20260509123513 | 44 | 128 | 0.0 | 5.0 | 0.02 | 0.05 | 0.02 | 88 | 1009.8 |
| 20260509123012 | 44 | 128 | 1.0 | 5.0 | 0.01 | 0.04 | 0.01 | 88 | 1009.8 |
| 20260509122508 | 43 | 138 | 3.0 | 5.0 | 0.01 | 0.04 | 0.01 | 88 | 1009.9 |
| 20260509122010 | 43 | 136 | 2.0 | 7.0 | 0.01 | 0.04 | 0.01 | 87 | 1009.9 |
| 20260509121508 | 43 | 153 | 2.0 | 7.0 | 0.01 | 0.04 | 0.01 | 87 | 1010.0 |
| 20260509121010 | 43 | 149 | 2.0 | 8.0 | 0.01 | 0.04 | 0.01 | 87 | 1010.1 |
| 20260509120506 | 43 | 142 | 3.0 | 9.0 | 0.01 | 0.04 | 0.01 | 87 | 1010.1 |